Flag for South Korea Weather past 2 weeks in Gunsan, South Korea

Now
78 °F

Haze.


Feels Like: 79 °F
Forecast: 61 / 78 °F
Wind: 9 mph from West

Location: Kunsan Ab

Current Time: May 27, 2015 at 2:01:51 PM

Latest Report: May 27, 2015 at 12:58 PM


Visibility: 6 mi

Pressure: 29.84 "Hg

Humidity: 48%

Dew point: 56 °F

Location of GunsanLocation

Historic Weather in Gunsan — Graph

°F

Gunsan temperature yesterday

Maximum temperature yesterday: 71 °F (at 1:58 PM)
Minimum temperature yesterday: 55 °F (at 1:58 AM)
Average temperature yesterday: 62 °F

Past Weeks' High & Low Weather Summary

 TemperatureHumidityPressure
High78 °F (May 27, 12:58 PM)100% (May 15, 4:58 AM)30.02 "Hg (May 15, 4:58 AM)
Low52 °F (May 17, 5:58 AM)30% (May 16, 3:58 PM)29.55 "Hg (May 12, 4:58 PM)
Average63 °F78%29.83 "Hg
* Reported May 12 1:01 PM — May 27 12:58 PM, Gunsan, Weather by CustomWeather, © 2015

Note: Actual official high and low records may vary slightly from our data, if they occured in-between our weather recording intervals... More about our weather records

Advertising

Gunsan weather history for previous 24 hours

 ConditionsComfort  
Time TempWeatherWind HumidityBarometerVisibility
12:58 PM
Wed, May 27
78 °FHaze.9 mph48%29.84 "Hg6 mi
11:58 AM77 °FScattered clouds.6 mph56%29.85 "Hg7 mi
10:58 AM76 °FHaze.6 mph59%29.87 "Hg6 mi
9:58 AM74 °FHaze.No wind53%29.88 "Hg6 mi
8:58 AM70 °FHaze.5 mph60%29.88 "Hg5 mi
7:58 AM65 °FScattered clouds.3 mph79%29.88 "Hg5 mi
6:58 AM60 °FFog.2 mph98%29.87 "Hg3 mi
5:58 AM56 °FFog.6 mph100%29.86 "Hg3 mi
4:58 AM57 °FFog.3 mph100%29.86 "Hg4 mi
3:58 AM58 °FFog.5 mph100%29.87 "Hg5 mi
2:58 AM58 °FFog.3 mph100%29.88 "Hg4 mi
1:58 AM58 °FClear.2 mph100%29.88 "Hg7 mi
12:58 AM58 °FClear.2 mph100%29.89 "Hg9 mi
11:58 PM
Tue, May 26
56 °FClear.6 mph100%29.89 "Hg8 mi
10:58 PM60 °FClear.2 mph94%29.89 "Hg10 mi
9:58 PM60 °FClear.2 mph92%29.89 "Hg10 mi
8:58 PM61 °FClear.5 mph87%29.89 "Hg10 mi
7:58 PM61 °FClear.6 mph75%29.88 "Hg10 mi
6:58 PM65 °FSunny.8 mph66%29.88 "Hg9 mi
5:58 PM67 °FSunny.12 mph63%29.86 "Hg5 mi
4:58 PM70 °FSunny.13 mph55%29.86 "Hg10 mi
3:58 PM69 °FSunny.12 mph67%29.86 "Hg9 mi
2:58 PM70 °FSunny.12 mph67%29.87 "Hg8 mi
Weather by CustomWeather, © 2015

See weather overviewHow to use our weather pages